Wind_Speed
12 11 10 10 10 9 8 8 9 9 9 10 10 10 10 10 10 11 12 13 13 12 10 11 12 13 14 14 12 10 9 9 9 9 9 8 7 6 7 8 9 9 10 10 10 10 11 12 14 16 16 17 19 19 19 18 18 18 17 17 17 17 16 16 16 16 16 16 16 15 15 14 14 13 13 13 13 12 12 12 12 11 11 11 10
12 11 11 11 10 10 10 10 10 9 9 9 9 10 11 11 11 12 14 15 15 13 12 12 13 14 14 14 11 9 8 8 8 8 8 8 7 7 6 8 8 9 9 7 9 12 13 12 14 17 17 18 20 21 20 20 20 19 18 18 18 18 17 17 17 17 16 16 16 16 16 16 15 14 14 14 13 13 13 13 13 12 12 12 11
13 12 12 12 11 11 11 11 11 10 11 10 10 11 13 13 14 15 16 16 17 15 14 12 13 14 13 11 9 8 8 8 8 8 8 8 7 6 6 7 8 9 10 7 9 12 13 12 14 17 18 19 20 21 21 21 21 20 20 19 18 19 18 18 18 18 17 17 17 17 16 17 16 15 15 15 14 14 14 14 14 13 13 12 12
13 13 13 13 13 12 12 12 12 12 13 14 14 14 14 15 15 16 16 16 16 15 13 12 13 13 11 8 7 8 9 9 9 8 8 8 8 7 6 6 7 8 9 9 9 11 13 13 14 17 19 19 21 21 21 20 21 21 20 20 19 19 19 19 19 19 18 18 18 18 17 17 17 17 16 16 16 15 15 15 15 14 14 13 13
13 13 14 15 14 14 14 13 12 13 14 15 16 15 14 14 13 13 13 12 13 12 12 12 13 13 10 7 8 8 10 11 11 10 10 10 9 8 7 6 6 6 7 9 9 10 12 14 14 17 19 21 22 21 20 20 20 20 21 21 20 20 20 20 20 20 19 19 19 18 18 18 18 18 18 17 17 17 16 16 16 16 15 14 14
14 15 16 16 16 16 16 14 13 13 11 11 12 12 12 12 11 10 10 10 10 10 11 13 13 13 10 9 9 9 10 12 12 12 11 10 10 9 8 7 7 7 7 8 9 10 12 14 15 17 19 20 22 22 20 19 18 20 21 21 20 21 21 22 21 21 21 20 20 19 19 19 19 19 19 19 18 18 18 18 17 17 16 16 15
15 16 18 18 17 17 15 14 13 10 7 7 8 8 9 9 8 8 9 9 9 9 11 12 12 11 10 10 10 10 11 12 12 11 11 10 10 10 9 9 8 7 7 7 9 10 12 14 15 16 18 19 22 21 19 19 19 20 21 20 21 23 23 24 24 23 22 21 21 21 20 20 20 20 20 20 19 19 19 19 19 18 18 17 17
16 18 19 17 16 16 13 10 9 6 4 4 4 5 5 5 5 6 7 7 8 9 9 9 9 9 9 10 10 10 10 11 11 10 10 9 9 9 8 8 7 7 8 8 9 10 12 15 16 16 16 18 20 19 19 20 21 21 21 21 23 24 25 25 24 24 24 23 23 22 22 21 21 21 20 20 20 20 20 20 20 20 19 19 18
18 18 16 14 13 12 7 4 4 3 2 2 2 3 3 3 3 3 5 6 6 7 6 6 7 7 8 9 9 10 10 11 10 10 10 10 9 8 7 6 6 6 7 7 8 10 11 14 16 16 16 16 17 18 17 17 20 23 22 23 24 25 26 26 25 25 25 25 25 24 23 23 22 22 22 21 21 21 21 21 21 21 21 20 20
16 12 10 8 6 4 2 2 2 1 1 2 2 2 3 3 3 3 4 6 7 7 7 6 7 8 8 8 9 10 10 10 10 10 9 8 6 5 5 4 4 4 5 6 6 8 9 11 13 13 14 15 14 15 15 16 20 24 23 23 24 25 25 26 25 25 26 26 26 25 25 25 24 24 23 23 22 22 22 22 22 22 22 22 21
10 7 5 4 4 4 3 3 2 1 2 4 4 4 4 5 5 5 5 7 8 9 9 8 8 9 10 9 9 9 9 9 9 7 6 5 5 5 4 4 3 3 3 4 5 6 7 7 8 9 11 12 11 11 13 15 19 22 22 22 24 26 26 27 26 26 26 26 26 26 26 26 26 25 25 24 24 24 23 24 24 23 23 23 23
7 5 5 5 5 5 4 3 3 3 5 6 6 6 6 7 7 7 8 8 8 9 8 8 10 11 11 9 8 8 8 7 5 3 4 5 5 5 4 4 3 3 4 4 5 5 5 5 6 6 8 8 9 9 11 14 16 18 20 21 24 25 26 26 26 26 26 26 26 27 27 27 27 27 27 26 26 26 25 25 25 25 25 24 24
8 7 6 6 6 5 4 4 5 6 7 8 8 9 9 9 9 9 9 9 8 8 6 7 9 9 8 8 9 7 6 5 1 3 6 4 3 4 4 4 4 4 4 4 4 5 5 5 5 5 5 6 6 7 9 11 14 16 18 20 22 23 24 25 25 26 27 26 26 27 27 27 28 28 28 28 28 27 27 27 26 26 26 26 26
9 8 8 7 7 7 6 7 7 8 8 9 10 10 10 10 10 9 9 9 8 7 6 6 5 5 4 6 9 5 2 2 4 2 8 4 3 4 4 5 4 4 5 4 4 5 5 6 6 6 5 5 5 5 6 8 10 12 14 17 19 20 21 23 25 27 27 26 25 25 25 26 27 28 29 29 30 29 29 29 28 28 28 28 28
11 10 10 9 9 9 9 9 9 8 8 9 10 10 10 9 9 9 8 7 6 5 4 3 2 4 3 2 4 3 3 3 1 5 8 3 3 5 4 5 4 5 5 5 5 6 6 6 6 6 6 6 6 6 6 7 8 9 11 14 16 18 19 21 23 24 24 24 24 24 24 24 25 28 29 30 31 31 31 30 30 30 30 30 29
12 12 11 12 11 10 10 9 8 8 8 8 8 8 7 7 6 6 6 5 4 2 2 1 1 2 2 0 1 1 1 3 6 10 7 4 4 5 6 6 6 6 6 6 7 7 8 8 8 8 7 7 7 7 8 9 9 9 10 11 13 16 17 19 19 19 19 21 22 24 25 25 26 27 28 30 31 31 32 32 32 32 31 31 31
12 12 12 12 11 10 8 7 7 8 7 6 6 6 5 5 4 4 3 3 2 2 2 0 0 1 1 1 0 1 1 2 6 6 5 6 4 6 8 7 9 9 6 7 8 9 10 9 8 8 8 8 8 8 9 10 10 11 11 11 12 14 16 17 17 16 16 18 20 22 25 27 28 27 27 29 30 31 32 32 32 33 33 33 33
10 11 11 10 9 8 6 5 6 6 6 5 5 5 5 4 3 3 2 1 2 2 1 1 1 2 2 2 2 1 1 1 2 2 6 7 3 7 9 8 12 10 8 10 10 11 10 9 8 8 8 8 8 8 9 9 10 11 11 12 12 13 14 15 15 16 17 17 18 20 23 26 28 29 29 29 30 31 32 32 33 33 33 34 35
9 10 10 9 8 7 5 4 4 4 5 6 5 4 4 3 2 2 2 1 2 1 1 1 2 2 2 2 3 3 2 1 1 1 4 4 6 11 9 10 14 10 10 14 14 14 11 9 9 8 8 9 9 9 9 9 10 11 11 11 12 12 13 14 14 16 17 17 18 19 22 24 26 28 29 30 30 31 33 33 33 34 34 34 35
9 9 9 10 9 8 5 5 5 5 5 6 5 5 4 3 2 1 1 1 1 1 0 1 1 2 3 2 2 3 2 1 1 1 2 3 8 10 10 15 15 10 13 16 16 16 12 11 11 11 11 10 10 10 11 11 11 12 12 12 12 13 13 13 14 15 16 17 17 19 21 22 24 26 27 29 30 31 32 34 34 35 35 35 35
10 8 9 10 10 9 7 6 6 5 6 6 5 4 4 4 3 2 2 2 1 1 1 1 1 2 2 2 3 3 2 2 3 3 2 3 3 3 10 18 16 12 14 15 15 14 12 12 13 12 12 12 12 13 13 14 14 14 15 14 14 14 14 14 15 16 16 17 17 18 20 21 22 24 25 27 29 29 30 32 34 35 36 36 36
10 8 9 10 11 10 8 8 7 6 6 6 6 5 5 5 4 4 3 3 3 2 2 2 1 2 2 3 3 3 2 2 3 4 3 3 3 4 9 11 11 14 16 15 14 12 11 12 13 13 13 13 14 15 15 16 16 16 16 16 16 16 15 16 17 17 17 18 18 18 19 21 22 23 25 26 27 28 28 30 32 34 35 36 36
11 9 10 11 11 10 9 9 7 6 6 6 6 5 5 5 4 3 4 4 5 4 4 3 2 3 3 4 4 3 3 2 3 4 4 4 4 5 8 9 9 12 14 16 14 9 9 11 12 13 14 14 15 16 17 17 17 17 17 16 17 17 17 17 18 19 20 21 21 21 20 21 22 23 24 26 27 28 29 30 31 32 33 34 36
13 11 12 12 11 11 11 10 8 7 7 6 6 4 4 4 4 4 4 4 5 5 5 4 4 4 5 5 5 5 5 4 3 4 5 4 4 5 7 9 7 9 14 16 13 8 7 9 11 12 13 15 16 17 18 18 18 18 19 19 19 19 19 19 19 20 21 22 23 24 24 23 23 24 24 25 26 28 29 31 31 32 32 33 35
15 14 14 13 12 13 13 11 9 8 7 7 6 5 4 4 5 5 4 3 4 5 5 5 5 6 6 6 6 6 6 5 5 6 6 6 5 5 7 6 6 10 15 14 11 10 7 7 10 11 12 15 16 17 18 18 19 19 20 21 21 21 22 21 20 21 21 22 23 24 26 27 27 26 25 25 26 27 29 30 31 32 32 32 33
16 15 14 13 13 14 13 11 10 9 8 7 6 6 6 5 6 6 5 4 5 5 5 5 6 6 7 7 7 7 7 6 7 7 8 8 6 5 5 5 7 9 9 8 9 9 7 8 10 10 12 16 17 18 19 19 20 20 21 22 23 23 23 23 22 22 22 23 23 24 25 27 29 29 29 27 27 27 28 29 29 31 32 33 33
16 15 14 13 14 15 13 11 10 10 10 9 8 8 8 7 7 7 6 6 7 7 7 7 7 8 8 8 8 9 8 8 8 8 9 9 9 8 6 4 5 5 4 5 9 10 9 11 12 10 12 17 20 20 20 21 20 20 22 23 24 24 23 24 24 23 24 24 24 25 25 26 28 30 31 30 29 28 28 29 29 30 32 33 34
16 15 14 14 15 15 13 11 12 11 11 10 9 9 9 8 8 8 7 7 8 9 9 9 9 9 9 10 10 11 10 10 10 10 10 10 10 10 8 6 4 2 2 3 4 6 7 10 11 11 13 18 21 22 22 23 22 21 22 23 24 24 24 24 25 25 25 25 25 26 26 26 27 29 31 32 32 31 30 29 29 30 32 33 34
16 15 15 15 16 15 13 12 12 12 12 11 10 10 10 9 9 9 9 9 10 11 11 11 11 10 10 11 12 12 11 11 11 12 12 12 12 12 11 10 7 4 1 2 3 3 6 10 10 11 16 20 22 24 24 25 24 22 22 23 24 24 25 25 25 26 26 26 26 26 27 27 27 27 29 32 33 33 32 31 30 30 31 33 34
16 15 15 16 16 15 14 13 12 13 13 13 11 11 11 11 11 11 11 11 12 12 12 12 12 12 12 12 13 13 13 12 13 13 13 14 13 13 13 12 11 9 6 3 4 6 9 11 12 14 20 23 23 25 27 27 26 24 23 23 23 24 25 26 27 27 27 27 28 28 27 27 28 28 28 30 32 33 33 33 32 30 30 32 34
15 15 16 16 16 15 14 13 13 14 14 13 13 12 12 13 12 12 12 12 13 13 13 13 13 13 13 13 14 14 14 14 15 15 15 15 15 15 14 14 14 14 13 7 4 7 10 11 15 21 23 24 26 28 29 30 28 25 24 24 24 24 26 27 28 29 30 30 30 30 30 29 28 28 28 29 30 32 33 33 33 32 30 31 32
16 16 17 17 16 15 14 13 13 13 13 13 12 12 13 13 12 12 12 13 14 14 14 14 14 14 15 15 15 16 16 16 17 17 17 17 17 16 15 15 15 15 16 11 6 11 19 19 21 26 26 26 29 30 31 33 31 27 26 25 25 26 27 28 29 30 31 32 33 33 33 32 30 29 29 29 29 30 32 33 33 33 32 30 31
17 18 18 17 16 15 15 14 13 13 13 13 12 12 13 13 13 13 13 14 14 14 14 14 15 16 17 17 18 17 17 18 18 18 19 19 19 18 17 17 17 17 17 15 10 13 23 25 23 27 29 28 29 32 33 35 35 31 29 27 26 27 29 29 30 32 33 33 34 35 35 34 33 31 30 30 30 30 31 33 33 33 33 32 31
18 19 18 17 17 17 17 16 15 14 14 14 14 14 14 15 15 15 15 15 15 15 15 15 15 16 18 19 20 19 18 18 19 18 19 19 19 20 19 18 20 20 19 20 17 13 19 27 26 27 30 28 28 33 34 35 36 36 32 30 28 28 29 30 31 33 34 34 34 35 36 36 36 34 33 31 31 31 31 32 33 33 34 34 33
19 18 17 18 18 18 18 18 17 16 17 17 16 16 17 17 18 18 18 18 17 17 17 17 17 17 18 20 20 20 19 19 20 19 19 19 19 20 21 21 21 22 22 22 21 18 19 26 27 26 28 28 29 34 35 35 36 35 33 32 31 30 30 30 32 34 35 35 35 36 37 38 37 37 35 34 32 31 31 31 33 34 34 35 34
19 18 17 18 19 19 20 19 19 19 19 19 19 18 19 19 19 19 19 19 20 20 20 19 19 18 19 20 20 20 19 20 20 19 18 19 19 20 21 22 22 24 25 24 24 24 22 24 27 27 27 29 32 34 33 34 35 34 33 33 32 31 32 31 32 34 35 35 36 36 37 38 38 38 37 36 34 32 31 31 32 34 35 35 35
18 17 18 19 20 21 22 21 20 20 21 21 21 20 19 18 17 16 16 17 18 19 19 19 19 19 19 20 20 20 19 20 20 20 19 18 19 20 21 22 22 24 25 25 26 25 23 24 27 29 28 29 31 32 32 31 31 29 30 33 34 32 32 33 32 34 35 36 36 38 39 39 39 39 38 36 35 33 32 31 31 33 34 35 36
19 18 19 20 21 23 23 22 22 22 22 22 21 20 18 15 14 13 12 14 15 15 17 17 18 19 19 19 20 20 20 20 20 19 19 18 18 20 21 21 22 22 23 25 25 23 23 25 27 28 29 28 28 30 31 30 27 25 25 29 32 32 31 32 32 34 36 37 37 38 39 40 40 39 38 36 35 34 33 32 31 32 33 35 36
20 21 22 23 23 23 24 23 22 22 21 21 19 17 15 13 12 11 12 13 14 14 15 16 17 18 18 19 19 19 19 20 20 19 18 18 18 19 21 21 20 20 21 22 23 22 22 22 23 25 26 26 26 28 30 29 27 26 24 22 24 29 31 31 32 35 38 39 38 38 38 39 38 38 37 36 35 33 32 31 31 31 32 34 35
22 23 24 25 24 23 24 22 20 19 18 18 17 15 14 13 12 12 12 13 13 14 14 15 16 17 18 18 18 18 19 19 20 20 19 18 19 19 21 21 20 19 20 20 21 21 18 16 18 21 23 24 25 26 28 27 24 24 25 22 21 26 32 32 32 36 38 39 39 39 38 38 37 37 36 35 35 33 32 31 30 31 32 34 35
23 24 26 27 25 23 23 21 19 18 17 18 17 16 16 15 14 14 13 14 14 14 15 16 17 18 18 18 18 17 17 18 18 19 19 19 20 21 21 21 20 20 20 20 20 18 15 14 16 19 20 22 24 23 24 24 22 21 24 24 23 26 32 32 32 34 36 36 37 38 37 36 36 36 34 33 33 33 31 32 31 30 31 33 35
23 24 27 28 26 24 23 20 19 19 18 18 17 16 16 16 15 15 15 16 17 17 17 17 18 19 18 18 17 16 16 16 16 17 19 20 21 22 22 21 20 20 20 20 18 16 14 14 16 17 18 21 23 23 23 24 23 23 23 23 22 25 29 28 28 30 32 32 33 35 36 36 34 34 33 32 33 32 30 32 32 31 30 31 34
26 28 28 27 26 25 23 21 20 20 19 18 16 14 14 14 15 16 17 18 19 19 19 19 18 19 18 17 17 16 16 16 16 18 19 20 21 22 22 21 20 21 21 20 19 18 16 15 15 16 18 21 24 23 24 24 22 22 22 22 22 25 26 22 20 24 30 32 32 35 39 40 37 35 35 35 34 33 31 33 33 32 31 30 31
29 30 29 27 27 26 24 23 23 22 20 18 16 15 15 15 16 18 19 19 19 19 19 19 19 19 19 18 18 17 17 17 18 19 20 21 21 20 20 20 20 20 21 20 20 20 18 16 16 18 19 23 25 25 25 24 22 23 24 22 24 27 27 22 18 23 33 36 34 36 39 42 40 35 35 37 36 34 33 35 35 33 33 31 30
30 30 30 29 28 27 25 24 25 24 21 19 17 17 17 18 18 19 20 19 18 18 17 18 19 19 20 21 19 18 18 18 19 20 20 19 18 17 18 19 20 21 21 21 20 20 21 19 17 19 22 22 23 25 27 25 24 27 27 24 26 28 28 27 25 32 40 40 37 37 36 39 42 37 35 38 36 33 33 35 36 35 34 33 31
31 30 30 29 28 27 27 26 26 25 23 21 19 19 19 19 18 17 17 17 16 16 16 17 18 19 21 21 19 17 17 18 20 22 19 17 16 17 18 19 21 21 21 21 20 19 21 21 20 23 26 26 23 24 28 27 26 29 29 27 29 31 32 31 31 37 44 42 39 35 29 36 44 38 36 40 36 33 34 35 36 35 33 33 32
30 29 29 29 28 28 28 26 26 26 24 22 20 20 19 18 16 15 14 14 14 15 15 16 18 19 20 19 17 15 16 18 20 20 18 16 16 18 20 21 22 22 22 21 19 18 20 22 22 24 26 27 26 25 28 29 28 30 30 29 30 31 32 32 30 35 40 40 38 30 24 33 40 34 37 42 37 33 35 34 35 37 35 34 33
29 28 28 28 28 28 28 27 27 26 25 22 21 20 18 16 15 14 13 14 14 15 16 17 17 17 17 16 14 14 16 17 18 16 16 17 18 19 20 21 22 23 23 21 17 18 21 22 22 23 24 27 29 28 29 29 29 30 29 27 29 29 29 28 28 32 34 34 34 30 26 32 35 32 36 39 32 30 34 33 34 36 36 35 33
26 26 26 26 26 26 27 27 27 26 24 22 19 18 17 15 15 14 14 15 15 16 16 16 17 16 14 14 13 13 15 15 15 16 17 18 19 19 19 19 19 20 21 20 18 20 22 22 23 25 27 28 28 28 28 27 26 26 24 25 27 28 25 21 20 27 32 31 33 34 30 32 36 34 34 34 30 29 30 30 32 33 33 34 34
25 25 25 25 25 26 28 28 26 25 23 20 17 16 15 14 14 14 15 15 15 15 16 15 15 15 13 13 12 12 13 14 16 19 20 18 19 19 17 15 14 16 18 19 21 22 23 23 26 27 27 27 26 26 27 26 25 24 22 23 26 26 23 19 19 29 34 30 31 33 27 29 35 34 31 29 28 30 30 29 30 31 30 31 32
24 24 24 24 26 28 29 28 26 23 21 17 14 13 13 13 14 14 15 15 15 14 14 14 14 14 13 13 11 11 12 15 17 19 19 17 18 17 14 13 13 15 17 18 20 22 24 25 27 27 27 27 24 23 24 25 26 26 23 23 24 24 25 24 25 26 21 20 28 31 25 28 34 33 28 20 15 19 27 30 32 32 30 29 30
Wind_Direction
266 271 276 275 272 273 281 293 301 303 296 287 286 285 288 292 293 292 292 291 289 289 289 290 295 301 308 314 317 318 317 318 317 318 317 314 314 316 319 317 312 301 284 277 275 266 259 249 241 240 241 241 242 241 235 232 234 232 231 230 231 231 229 229 228 227 227 227 230 230 229 228 226 225 224 222 222 226 230 233 234 234 235 236 237
268 271 273 271 269 272 279 290 297 299 294 287 286 286 286 287 286 287 287 286 287 287 287 289 294 300 306 309 312 315 315 319 320 320 321 318 314 308 310 314 317 316 306 289 271 264 258 249 242 238 237 238 240 243 239 234 233 233 232 232 232 233 231 232 231 231 230 229 232 233 233 232 230 229 229 228 226 228 232 236 238 238 239 240 241
268 270 270 268 270 274 276 282 287 289 288 285 283 285 284 283 284 286 287 288 289 289 287 285 291 298 303 306 309 311 311 312 312 315 320 323 320 310 305 308 311 312 314 305 277 272 270 260 249 243 239 238 240 243 242 239 236 234 233 232 233 235 234 234 234 234 233 232 233 233 235 236 234 232 232 233 233 233 234 236 239 241 242 243 244
268 270 270 271 272 272 273 277 281 284 288 289 286 285 284 283 284 286 287 289 290 288 283 281 287 293 295 300 302 304 305 304 304 310 315 318 319 315 308 307 308 302 300 297 285 283 283 273 260 251 246 243 242 243 242 243 242 240 237 234 233 235 237 236 236 237 235 234 235 234 235 237 238 236 235 236 237 238 238 238 239 241 243 244 246
269 273 275 276 275 273 273 274 280 286 289 289 286 285 287 287 288 288 288 290 291 288 284 284 285 283 285 293 294 296 301 300 300 304 308 310 310 308 308 307 309 303 290 281 277 275 276 276 269 260 255 249 246 244 243 245 247 249 246 240 237 237 239 240 238 237 238 237 236 236 236 237 239 240 240 240 240 241 241 241 241 241 243 244 245
269 274 274 275 273 273 273 274 282 288 289 290 287 285 288 288 289 291 292 294 291 288 288 286 281 277 279 287 289 293 298 298 298 301 305 307 304 301 300 301 301 304 294 278 271 265 264 272 274 267 259 254 252 249 246 248 249 252 253 250 246 244 242 242 242 239 238 239 239 238 238 239 239 240 241 242 242 243 243 243 243 244 245 245 246
270 271 271 271 270 269 273 281 284 283 286 291 293 292 291 291 290 289 291 294 293 292 291 287 282 278 277 282 289 297 299 300 302 306 309 307 303 299 296 296 298 301 298 287 280 275 273 276 279 275 265 260 257 252 248 250 249 249 251 251 251 249 245 242 242 241 239 239 240 240 240 240 240 240 240 241 242 244 245 245 245 245 246 247 247
270 267 266 267 272 274 275 280 275 267 278 289 299 304 303 305 302 297 294 296 299 298 299 297 292 287 283 285 294 301 302 306 310 314 315 310 306 305 301 300 301 300 293 287 286 289 289 288 289 286 277 270 264 258 254 252 251 250 247 246 247 246 246 244 241 241 240 240 240 240 241 242 242 242 241 241 241 243 245 245 246 247 247 248 248
268 266 267 269 274 279 273 257 246 256 285 296 320 324 326 329 331 322 309 308 306 301 304 303 298 298 296 298 305 307 308 311 315 317 317 314 313 311 309 308 307 304 296 291 290 292 293 292 294 291 283 277 271 271 270 260 256 257 253 249 249 247 247 248 247 244 242 241 241 240 241 242 242 243 243 243 243 243 244 246 247 248 249 249 250
265 266 267 264 257 254 230 189 196 230 274 289 300 294 305 307 307 311 305 304 302 302 304 299 299 301 302 307 310 309 310 313 316 321 325 328 332 329 328 328 324 321 320 317 311 305 301 298 297 293 288 284 280 277 272 262 255 256 258 258 255 252 250 250 249 247 245 244 243 242 243 243 243 244 244 244 245 244 245 246 247 248 250 250 250
265 261 239 221 199 193 168 157 172 212 270 282 272 270 279 279 284 286 287 292 297 304 303 300 302 300 303 307 307 306 307 311 318 329 344 356 4 2 357 358 359 2 359 351 342 328 319 311 304 299 297 296 295 286 269 262 258 256 260 262 257 253 252 252 251 249 248 245 244 244 244 245 245 245 246 246 246 246 246 247 248 249 250 251 251
252 240 215 197 183 179 168 180 227 268 289 296 284 277 273 271 278 281 288 292 298 308 304 300 302 302 306 305 303 303 300 306 315 353 16 15 16 17 19 18 16 19 16 14 9 360 352 341 328 316 309 305 302 291 277 273 270 265 263 258 255 255 253 252 252 252 251 248 245 245 245 246 247 247 247 247 247 247 248 248 249 250 250 251 251
234 228 218 201 187 189 205 233 264 280 293 301 293 286 279 277 280 284 293 298 304 313 308 304 305 310 317 312 312 302 291 302 250 69 28 26 31 24 26 19 14 16 12 10 10 8 6 359 351 343 328 316 303 287 279 273 269 268 266 260 257 258 257 254 253 253 254 252 249 248 248 248 248 248 248 248 248 249 249 250 250 251 252 252 252
225 225 223 209 204 218 238 253 265 273 285 294 289 286 283 282 283 286 292 294 301 307 304 305 302 318 331 323 329 323 311 322 171 83 13 27 43 23 21 12 8 7 5 1 360 359 359 354 350 348 339 326 312 296 286 277 273 272 271 270 266 264 264 261 257 255 255 255 254 254 253 250 250 251 250 249 250 250 250 250 251 252 253 253 253
220 222 222 215 217 228 242 251 257 268 279 286 284 282 283 282 282 285 285 287 295 297 303 313 299 322 343 334 344 349 345 19 190 310 343 15 23 18 23 18 12 360 357 360 3 6 7 0 352 346 339 329 316 305 299 294 290 284 277 277 277 276 275 270 265 264 264 262 260 261 260 256 254 254 253 251 250 250 250 251 252 253 253 254 254
222 221 218 219 223 229 239 244 252 267 273 275 275 274 276 278 279 279 275 280 283 270 290 342 319 326 357 338 13 13 314 2 332 314 329 7 2 17 21 18 14 3 2 11 14 14 9 3 359 353 347 337 326 315 309 306 301 293 285 281 283 286 287 286 285 285 279 269 262 261 261 259 256 254 253 253 252 250 251 251 252 253 253 254 254
224 220 217 222 226 225 230 240 252 264 264 263 266 263 261 267 275 271 266 273 255 239 252 247 298 275 237 221 167 34 226 321 332 310 324 347 353 14 10 8 7 5 12 18 17 13 5 2 2 1 359 353 343 332 322 318 315 310 304 298 296 298 300 302 303 298 286 275 268 264 261 259 258 255 254 254 254 252 250 251 252 252 253 254 254
217 215 215 218 220 218 226 243 252 255 256 261 263 254 248 253 265 258 250 248 226 235 232 217 269 265 239 228 235 291 265 313 344 298 322 338 352 355 352 354 356 2 22 19 14 10 8 9 9 10 11 8 4 356 346 337 332 327 323 316 311 308 308 308 305 297 288 282 276 269 263 261 258 257 256 255 254 253 252 251 252 252 252 253 254
209 207 212 219 223 226 235 246 248 256 263 270 271 257 247 246 257 257 237 214 216 242 235 229 248 221 213 230 247 263 261 300 4 307 325 328 322 332 339 345 348 1 19 15 12 9 13 23 22 22 22 18 13 8 360 352 344 339 334 326 320 317 311 304 299 295 291 286 280 273 269 265 261 260 258 257 256 254 253 252 252 251 252 253 254
208 212 221 227 225 221 225 235 243 261 267 269 272 260 251 255 267 283 258 229 229 243 231 231 226 206 209 215 230 241 237 230 216 249 299 301 313 324 330 336 344 2 10 7 9 10 18 31 32 30 29 26 20 13 5 358 351 343 339 335 330 325 317 306 298 294 290 288 285 278 273 269 265 263 261 260 260 258 256 254 251 250 251 252 253
207 217 222 218 213 211 221 232 236 252 262 264 264 251 252 266 275 285 276 254 242 250 262 248 222 214 213 200 205 214 217 219 213 217 231 274 302 319 326 333 339 347 355 2 7 16 29 32 34 34 31 30 24 16 9 3 358 352 347 341 334 327 317 309 301 295 291 289 286 280 278 276 272 268 264 261 262 262 260 256 253 251 250 251 252
203 209 211 208 206 210 223 229 229 245 260 259 254 248 252 261 268 271 267 259 248 251 268 265 242 221 217 214 217 215 213 210 196 200 218 251 269 289 310 324 324 325 341 355 360 17 34 32 36 36 32 30 23 18 12 7 3 357 350 344 338 331 321 312 304 298 292 290 287 283 280 279 277 274 270 266 264 264 262 259 257 255 253 253 253
202 204 205 208 211 215 223 225 227 245 254 247 239 238 242 246 253 255 259 261 254 256 264 263 252 231 225 229 235 241 241 237 209 203 211 229 256 285 299 310 304 303 326 342 348 8 28 32 37 34 30 27 21 17 11 8 6 0 354 350 346 340 332 322 312 304 295 290 288 287 283 279 276 274 272 271 268 266 265 262 259 257 256 255 254
204 204 204 210 216 215 217 221 229 244 246 234 222 216 221 232 239 243 257 263 258 259 258 257 256 246 242 242 245 253 254 258 255 240 239 239 250 275 291 309 306 293 312 327 334 346 8 24 27 24 23 20 14 11 6 5 6 3 358 357 355 349 342 334 324 315 305 296 289 286 285 281 279 276 273 271 268 267 267 265 262 259 258 256 254
204 205 207 213 217 214 214 220 232 245 241 229 221 219 225 235 239 241 251 261 262 263 260 260 262 256 255 251 250 258 260 263 265 261 264 254 245 266 281 292 290 294 309 317 322 328 337 0 6 7 7 6 4 360 357 357 359 0 359 356 356 353 348 343 335 326 318 309 300 291 285 282 280 279 276 273 269 266 265 265 263 261 260 257 254
207 208 212 219 219 213 215 224 235 242 237 233 232 230 235 244 245 243 248 259 266 271 274 274 269 263 263 261 262 267 268 267 262 259 263 258 246 253 270 286 282 287 302 303 306 312 309 325 342 351 351 352 352 349 346 347 349 353 353 352 351 351 349 344 339 333 326 319 312 305 295 286 281 278 277 276 273 269 266 263 260 259 259 257 255
212 214 218 220 214 210 215 229 238 239 237 241 241 236 240 246 248 248 250 259 266 273 280 281 275 270 268 270 272 273 274 272 266 261 261 262 264 260 257 279 290 285 290 291 292 290 290 309 323 334 343 345 344 342 338 337 341 344 346 347 347 348 348 342 338 334 329 323 317 312 307 298 288 281 277 275 274 272 269 265 261 259 257 257 257
214 216 219 215 209 210 222 235 238 237 238 246 245 238 240 245 249 254 256 261 268 273 281 284 282 278 273 274 276 280 284 280 271 267 266 267 271 269 256 247 259 281 295 287 285 282 288 303 314 322 332 339 338 336 333 332 335 338 339 342 344 345 346 343 338 335 331 327 321 314 310 306 298 289 281 275 273 272 271 268 264 261 258 257 256
214 216 216 212 211 218 230 235 233 234 239 246 244 235 237 244 252 259 261 266 271 274 279 283 285 285 279 275 275 280 286 282 273 269 269 271 271 270 265 254 241 232 266 293 262 243 275 290 296 308 319 328 332 331 330 331 333 333 334 337 341 343 343 343 341 337 333 329 325 319 313 308 304 297 288 280 274 271 270 270 267 263 260 258 255
216 218 216 214 217 223 228 229 230 236 243 247 241 233 237 245 250 256 259 263 267 270 274 279 283 284 280 277 276 277 281 278 275 272 269 269 270 269 269 265 251 236 227 263 275 248 256 274 282 297 311 320 326 326 327 329 330 328 328 331 335 337 339 340 341 339 335 331 328 324 319 312 307 302 295 286 278 272 270 269 268 265 262 259 256
218 217 215 214 216 219 224 228 231 239 245 244 240 237 240 245 250 256 260 261 264 266 270 274 279 281 278 276 275 275 277 276 273 272 268 267 268 268 267 264 260 252 241 236 267 264 253 261 280 293 305 313 318 320 321 323 326 324 322 324 328 331 332 335 338 338 336 333 330 327 323 318 311 304 298 292 284 276 271 268 267 266 263 259 257
218 215 213 214 215 218 225 229 231 234 237 237 237 238 241 247 252 258 262 265 266 267 269 271 274 276 275 274 273 273 275 276 274 271 268 266 265 266 266 265 263 260 251 235 236 272 272 273 282 293 302 307 310 314 316 318 322 321 317 317 321 325 327 330 333 334 334 333 330 326 323 320 315 307 299 294 288 281 274 269 266 264 262 259 257
217 213 214 216 220 225 229 231 230 230 233 235 237 240 244 248 252 256 261 263 265 267 271 274 274 274 274 273 273 273 274 276 276 275 272 267 263 262 263 264 263 261 255 245 240 270 282 283 286 293 299 302 304 309 312 314 317 317 314 313 316 321 324 326 329 330 330 328 327 325 322 318 315 311 302 294 289 284 277 271 267 263 261 259 257
216 214 217 222 228 231 233 235 235 236 240 244 246 249 252 254 255 257 259 261 263 267 271 276 278 277 276 274 274 275 275 275 275 277 276 272 265 262 262 263 265 265 261 256 252 259 280 287 288 292 297 297 299 304 308 310 312 313 311 310 313 317 321 323 324 325 326 324 322 321 320 316 313 310 306 298 288 283 279 273 267 263 260 258 257
218 218 223 230 234 236 238 240 241 243 248 251 254 258 261 263 264 263 264 264 266 269 271 275 278 280 279 277 277 277 276 275 274 275 277 276 271 266 265 265 267 269 269 264 260 259 270 284 289 290 293 294 295 301 305 305 307 309 308 308 310 313 317 320 319 320 321 320 317 316 315 314 311 308 306 302 292 282 278 274 268 263 258 256 255
223 225 231 237 239 242 244 245 246 249 253 255 259 264 267 271 271 271 272 270 269 270 271 274 279 281 282 281 281 280 278 276 276 275 275 276 275 272 270 271 271 273 275 271 266 263 266 278 287 288 289 292 295 299 302 302 304 306 305 305 307 309 312 315 316 316 317 316 313 312 311 310 309 305 303 302 296 284 276 273 269 264 258 254 253
226 230 235 238 242 246 247 248 251 253 257 260 263 266 269 271 271 271 272 271 271 270 270 274 278 281 284 284 283 282 279 276 276 277 277 278 279 278 277 277 277 278 279 277 273 270 267 272 282 288 290 292 294 297 299 299 302 303 303 304 305 307 309 311 312 313 313 312 311 310 309 307 306 304 301 299 298 289 277 271 268 264 258 254 250
228 232 237 239 242 247 249 251 254 257 261 263 265 266 265 262 260 263 266 268 269 270 270 272 276 280 283 284 284 282 278 276 277 279 281 282 282 282 282 283 285 284 283 281 280 276 273 274 279 284 287 290 293 295 297 297 297 296 298 301 304 306 307 307 308 310 311 310 309 308 308 307 305 303 300 298 298 292 281 271 266 262 258 253 249
229 232 236 236 237 244 250 253 257 260 262 261 260 260 255 250 254 262 265 266 269 271 273 274 276 280 282 283 284 281 278 277 278 279 282 283 284 283 283 285 287 286 285 285 285 281 277 278 279 281 285 289 291 292 294 296 294 292 290 291 297 302 303 303 304 308 310 309 307 307 307 307 304 301 299 297 297 295 286 274 265 259 256 251 247
230 233 235 233 234 242 252 256 259 260 257 254 255 255 251 251 260 269 270 272 276 277 278 279 280 281 283 285 285 283 281 280 280 280 281 281 282 282 282 284 285 285 284 286 286 284 279 277 278 281 284 288 290 290 292 293 290 289 291 290 290 294 299 302 303 306 308 306 306 306 306 307 304 300 298 295 294 294 289 281 269 259 255 251 245
232 234 235 234 235 244 252 256 257 254 250 253 258 258 256 257 264 271 273 275 279 280 280 282 283 283 285 287 287 287 287 286 283 281 280 279 278 277 278 280 281 282 283 283 283 281 276 273 276 281 285 287 288 288 288 287 283 284 291 293 290 292 298 299 299 303 307 305 304 302 302 304 302 297 294 290 289 289 287 283 276 264 256 251 244
230 232 234 235 237 243 251 253 251 247 249 256 260 259 259 262 266 269 271 273 275 276 278 279 281 284 287 288 289 290 290 290 289 288 286 283 278 274 274 276 277 279 279 278 277 275 272 271 273 280 284 284 285 286 284 284 284 286 290 290 290 294 298 297 296 302 307 305 301 299 298 299 297 292 288 284 282 282 279 278 276 270 262 254 245
227 231 236 239 241 245 251 251 246 244 250 257 257 256 258 262 265 268 270 272 273 273 274 275 277 283 287 288 287 287 289 293 295 295 294 290 284 277 273 272 273 275 274 271 271 273 271 268 270 275 278 281 285 287 285 285 286 288 289 290 291 293 295 295 296 302 307 306 301 297 295 296 295 288 283 280 278 276 272 271 271 269 265 260 250
230 235 240 243 246 249 252 248 243 244 251 256 254 254 258 261 264 267 267 268 269 270 271 272 275 281 285 285 283 283 286 293 298 300 298 294 288 281 275 273 273 273 272 270 270 272 271 268 272 274 274 281 287 287 285 286 288 291 293 293 293 290 289 291 289 293 302 306 302 296 292 293 294 287 279 278 276 272 270 269 268 265 262 260 255
235 240 244 246 250 253 251 245 243 246 252 256 256 258 261 264 266 267 265 264 264 266 267 270 276 280 283 282 280 280 284 290 298 303 303 299 292 286 281 279 275 273 272 272 272 273 273 271 270 273 277 281 283 284 287 289 291 294 294 293 293 290 288 290 286 288 299 305 300 293 289 289 291 286 276 275 274 268 267 268 266 263 258 255 254
238 240 243 247 252 254 249 244 245 248 253 258 261 263 265 268 270 268 266 261 259 262 268 273 278 281 282 281 279 280 284 290 298 302 302 298 294 290 287 281 277 275 272 272 274 277 278 275 273 277 283 285 282 283 290 294 293 293 293 293 293 291 289 289 287 289 298 303 295 287 283 285 287 282 274 274 271 265 263 264 263 260 254 250 249
239 241 245 248 252 252 248 245 245 248 254 259 262 266 268 269 270 269 266 260 259 265 273 278 281 282 282 279 278 281 288 295 300 300 299 298 293 289 286 283 281 279 275 276 280 282 284 285 283 283 286 288 287 288 291 293 292 290 291 291 290 290 290 289 288 289 295 299 293 283 275 280 282 276 273 274 269 263 263 262 260 258 252 248 246
240 244 247 248 250 251 247 244 243 247 253 258 261 266 269 267 267 266 263 261 265 271 277 282 284 285 283 278 278 285 293 298 300 296 295 295 291 285 283 282 283 282 281 282 286 287 290 293 292 290 290 291 293 293 293 293 293 294 297 295 292 292 292 292 291 289 289 292 292 283 274 279 280 272 271 272 265 259 260 256 256 256 252 247 243
237 242 245 247 250 250 246 243 242 245 251 256 260 266 267 264 262 262 260 262 268 273 278 283 286 286 284 281 284 292 297 299 299 295 294 292 286 283 281 282 282 283 286 290 294 294 296 298 298 298 298 300 301 303 304 303 304 305 302 295 290 292 293 292 291 290 288 289 293 289 278 276 278 271 269 269 262 257 256 252 250 252 250 247 241
239 243 247 250 251 249 245 242 241 244 250 255 258 263 264 262 260 258 260 264 268 274 279 284 287 287 285 287 295 302 302 301 298 294 292 288 283 283 283 282 283 286 294 300 301 300 302 303 305 307 308 310 311 311 313 315 316 315 303 290 290 292 291 287 288 293 292 288 292 293 280 272 276 271 264 267 263 255 251 249 248 246 245 244 240
246 249 251 251 251 248 244 241 241 243 247 251 255 261 265 263 259 258 261 265 270 276 282 285 287 287 287 292 301 306 303 301 296 292 291 287 283 283 280 281 286 291 299 305 306 307 309 310 311 313 314 316 315 315 319 321 322 321 312 300 298 295 290 289 290 295 296 289 295 299 287 277 279 271 259 257 261 254 248 246 246 244 239 236 236
Height
848 848 848 848 849 849 849 849 849 849 848 848 848 848 848 848 847 847 847 848 847 848 847 847 847 846 845 845 844 844 843 843 843 843 843 842 842 841 841 841 841 841 842 843 845 846 847 847 848 849 850 852 853 854 855 856 857 857 858 858 859 860 860 860 860 860 861 861 862 862 863 863 864 864 865 865 866 867 868 869 869 869 870 870 870
847 847 847 847 847 848 848 848 848 848 847 847 847 847 847 847 846 846 846 846 846 846 846 846 846 845 845 844 843 843 842 842 842 842 841 841 841 840 841 841 841 841 842 844 844 843 843 845 847 847 847 848 850 851 853 854 855 856 857 857 858 859 859 859 860 860 860 860 861 861 862 862 863 864 864 865 865 866 867 868 868 869 869 869 869
846 846 846 846 846 847 847 847 847 847 846 846 846 846 846 846 846 845 845 845 845 845 845 845 844 844 843 842 842 842 842 841 841 841 840 840 840 840 840 840 840 841 841 842 842 841 841 843 845 845 845 846 848 849 850 852 853 854 855 856 857 857 858 858 859 859 859 859 860 860 861 861 862 863 863 864 865 865 866 867 867 868 868 868 869
845 845 845 846 846 846 846 846 846 846 846 845 845 845 845 845 845 844 844 844 844 844 844 843 842 842 842 841 841 840 841 840 840 840 839 839 839 839 839 839 840 840 841 841 841 841 841 841 843 843 843 845 846 848 849 851 852 853 854 854 855 856 856 857 857 858 858 858 858 859 859 860 860 861 862 863 864 864 865 866 866 867 867 868 868
844 845 845 845 845 845 845 845 845 845 845 845 844 844 844 844 844 843 843 842 842 842 842 841 841 841 840 840 839 839 839 839 839 838 838 838 838 838 838 839 839 839 840 840 841 841 840 840 841 842 842 844 845 846 848 849 852 853 854 854 854 855 855 856 856 856 856 856 857 857 858 858 859 860 860 861 862 863 864 865 865 866 866 867 867
843 844 844 844 844 844 844 844 844 844 844 843 843 843 843 843 842 842 841 841 841 840 840 839 839 839 839 839 838 838 838 837 837 837 837 837 837 837 837 838 838 838 839 839 840 840 840 840 840 841 842 843 844 845 846 847 850 852 853 853 854 854 854 854 854 854 854 855 855 855 856 856 857 858 859 860 860 862 862 863 864 865 865 865 866
843 842 842 843 843 843 844 844 844 843 843 842 842 841 841 841 841 841 840 840 840 839 839 838 838 838 837 837 836 836 836 836 836 836 835 835 835 836 836 836 837 837 837 838 838 839 839 839 839 840 841 842 843 844 845 845 847 849 850 850 852 852 853 852 852 852 852 852 853 853 854 854 855 856 856 857 858 860 861 862 862 863 864 864 865
841 841 840 841 842 842 843 843 843 843 842 841 841 840 840 840 840 839 839 839 839 838 838 838 837 837 836 836 835 835 834 834 834 834 834 834 834 834 835 835 835 836 836 836 837 837 837 837 837 838 839 840 841 843 843 844 845 845 845 846 846 848 848 848 848 849 849 850 850 851 851 852 853 853 854 855 856 857 858 860 861 861 862 863 863
840 840 840 840 841 842 842 842 842 842 841 841 840 840 839 839 839 839 839 838 838 837 837 837 836 836 835 834 834 833 833 833 833 833 832 832 833 833 833 833 834 834 834 835 835 835 836 835 835 836 837 838 839 840 842 844 844 841 841 842 843 845 846 846 846 846 847 847 847 848 848 849 850 851 852 853 854 855 856 857 859 860 860 861 861
839 839 840 840 841 841 841 841 841 841 841 840 840 839 839 838 838 838 838 838 837 837 836 836 835 834 833 833 832 832 832 832 832 831 831 831 831 832 832 832 832 833 833 834 834 834 834 834 833 834 834 836 838 839 841 842 841 839 839 841 842 843 844 844 843 843 844 844 845 845 846 846 847 848 849 850 851 852 854 855 856 857 858 859 860
838 839 839 839 840 841 840 840 841 841 840 840 840 839 839 838 838 837 837 837 836 836 836 835 834 833 832 832 831 831 831 831 831 831 830 830 830 830 831 831 831 832 832 832 833 832 832 832 832 832 832 833 834 836 837 837 837 838 839 840 840 840 840 840 840 840 840 841 842 842 843 843 844 846 847 848 849 850 851 852 854 855 856 857 858
838 838 838 839 839 840 840 840 840 840 840 840 839 839 838 838 837 837 836 836 836 835 835 835 834 833 832 831 831 831 830 830 830 830 830 830 830 830 830 830 830 831 831 831 832 832 832 831 831 831 831 831 832 833 834 834 835 837 837 837 837 837 837 837 837 837 837 838 838 839 839 840 841 843 844 845 846 847 849 850 851 852 854 855 856
837 837 838 838 839 839 839 840 840 840 839 839 839 838 838 837 837 836 836 835 835 835 835 834 834 833 832 831 830 830 830 830 830 830 830 830 829 829 829 829 830 830 830 830 831 831 831 831 831 831 830 830 831 832 832 833 834 834 834 834 834 834 834 833 834 834 834 834 835 835 836 837 839 840 841 842 844 845 846 847 848 850 851 852 853
836 836 837 838 838 839 839 839 839 839 839 838 838 837 837 837 836 836 835 835 834 834 834 834 834 833 833 832 831 830 829 829 830 829 830 830 829 829 829 829 829 829 829 830 830 830 830 830 830 830 830 830 830 831 831 831 832 832 832 831 831 831 831 830 830 829 830 831 832 833 834 835 837 838 839 840 841 842 843 844 845 847 848 849 851
835 836 836 837 837 838 838 838 838 838 838 838 837 837 836 836 836 835 835 834 834 834 834 834 834 834 834 834 834 833 831 830 830 829 829 829 829 829 829 829 829 829 829 829 829 829 829 829 829 829 829 829 829 829 829 829 829 829 829 829 829 828 828 827 827 827 828 830 831 832 832 833 834 835 836 837 838 839 840 841 842 843 845 846 848
834 835 835 836 836 837 837 837 837 837 837 837 836 836 836 836 835 835 835 834 834 834 834 834 834 834 835 835 836 836 835 832 831 829 829 829 829 829 829 828 828 828 828 828 828 828 828 828 828 828 828 828 828 828 828 827 827 827 827 827 826 826 825 825 825 826 827 828 828 829 830 830 831 831 833 834 835 836 837 838 839 840 841 843 844
833 833 834 835 835 836 836 836 837 837 836 836 836 836 835 835 835 835 834 834 834 834 834 834 834 834 835 835 836 837 836 834 833 830 828 829 829 828 828 828 828 828 828 828 828 827 827 827 827 827 827 827 826 826 826 826 825 825 825 825 825 824 824 823 824 824 824 824 824 826 827 827 827 827 828 830 832 833 834 835 835 836 838 839 841
831 832 833 834 834 835 835 835 836 836 836 836 836 835 835 835 834 834 834 834 834 834 833 833 833 833 833 834 834 835 835 834 835 833 829 828 828 828 828 827 827 827 827 827 827 827 826 826 826 826 826 826 825 825 825 824 824 823 823 823 823 822 821 821 821 821 820 821 821 822 823 823 824 824 824 825 827 829 831 832 832 833 834 835 837
830 831 832 833 833 834 834 834 835 835 835 835 835 835 834 834 834 834 834 834 834 834 833 833 833 833 833 833 833 833 833 834 835 835 833 830 828 827 828 827 827 826 826 826 826 825 825 825 825 825 825 824 824 824 823 823 822 822 822 821 821 820 819 819 819 818 818 818 819 819 819 820 821 821 821 822 823 825 826 828 829 829 830 831 833
830 831 831 832 832 833 833 833 834 834 834 834 834 834 834 834 834 834 833 834 833 833 833 833 832 832 832 833 833 833 832 833 833 834 835 834 830 827 827 826 826 826 825 825 825 825 824 824 824 823 823 823 823 823 822 821 821 820 820 819 819 818 818 817 816 816 816 816 817 817 817 817 818 818 818 818 819 820 822 823 825 826 826 828 829
829 830 830 831 831 832 832 833 833 833 833 833 833 833 833 833 833 833 833 833 833 833 833 832 832 832 832 832 832 832 832 832 832 833 834 835 833 829 828 826 825 825 825 825 825 824 824 823 823 823 823 822 822 822 821 820 820 819 818 818 817 816 816 815 814 813 813 813 814 814 814 814 815 815 815 815 816 817 818 820 821 822 823 824 825
828 829 829 830 831 831 831 832 832 832 832 832 832 832 832 833 833 833 833 833 833 833 832 832 832 832 832 832 832 832 832 832 832 832 833 834 834 831 830 829 827 825 825 825 825 824 824 823 823 822 822 822 821 821 820 820 819 818 817 816 815 815 814 813 812 811 811 810 810 810 811 811 811 811 812 813 813 814 815 816 817 818 819 820 821
827 827 828 829 830 831 831 831 832 832 832 831 831 831 831 832 832 832 832 832 832 832 832 832 832 832 832 832 832 832 832 832 832 832 833 833 834 832 831 830 829 827 825 825 824 824 824 823 823 822 822 821 821 820 819 819 818 817 816 815 814 813 812 811 810 809 808 808 808 807 808 808 808 808 809 809 810 810 811 812 813 814 814 815 817
826 826 827 828 829 830 830 831 831 831 831 831 831 830 830 831 831 831 832 832 832 832 832 832 831 832 832 832 832 832 832 832 832 832 832 832 833 833 831 831 829 827 825 825 824 824 824 823 822 822 821 821 820 819 819 818 817 816 815 814 813 812 811 810 808 807 806 806 805 805 805 805 805 805 805 806 806 806 807 808 808 809 810 811 813
824 825 826 827 828 829 829 830 831 831 830 830 830 830 830 830 830 831 831 831 831 831 831 831 831 831 831 832 832 832 832 832 832 831 831 832 832 832 832 831 830 827 826 825 824 824 823 823 822 821 821 820 819 819 818 817 817 815 814 813 812 811 809 808 807 806 805 804 803 803 802 802 802 802 802 802 802 802 803 804 804 805 806 807 808
823 824 825 826 827 828 828 829 830 830 830 830 829 829 830 830 830 830 830 831 831 831 831 831 831 831 831 831 831 832 832 831 831 831 830 831 831 831 831 831 830 828 826 825 824 823 822 822 821 821 820 819 818 817 817 816 815 814 813 812 810 809 808 807 805 804 803 802 801 800 800 799 799 798 798 798 798 798 799 799 800 801 802 802 803
822 823 824 825 825 826 827 828 829 829 829 829 829 829 829 829 829 830 830 830 830 830 831 830 830 830 830 831 831 831 831 831 831 830 830 830 830 830 830 830 830 828 826 825 824 823 821 820 820 819 819 818 817 816 815 815 814 813 812 811 809 808 806 805 804 802 801 800 798 797 796 796 795 795 794 794 794 795 795 795 796 796 797 798 799
821 822 823 823 824 825 825 826 827 828 829 829 828 828 828 829 829 829 829 829 830 830 830 830 829 830 830 830 830 830 831 830 830 829 829 829 829 828 828 829 830 829 827 825 823 822 821 820 819 818 818 817 816 815 814 813 813 812 810 809 807 806 805 803 802 800 799 798 796 795 793 792 791 790 790 790 790 790 791 791 791 792 792 793 794
819 820 821 822 823 823 824 824 825 827 827 828 828 828 828 828 828 828 828 828 829 829 829 829 829 829 829 829 829 829 829 829 829 828 828 828 827 827 827 827 828 828 827 825 822 820 820 820 818 816 816 816 815 814 813 812 811 810 808 807 805 804 803 801 800 798 797 795 794 792 791 789 788 787 786 786 786 786 786 787 787 787 787 788 789
818 820 821 821 822 822 822 823 824 825 826 826 827 827 827 827 827 827 827 827 828 828 828 828 828 828 827 827 827 827 827 828 827 827 827 826 826 825 825 825 825 826 826 825 821 818 818 818 817 816 814 814 814 812 811 810 809 808 806 805 803 802 800 799 798 796 795 793 791 790 788 786 785 783 782 781 781 781 781 782 783 783 783 784 785
818 819 820 820 821 821 821 822 822 823 824 825 825 825 825 825 825 825 825 826 826 826 826 826 826 826 826 825 825 825 825 826 825 825 825 824 824 823 823 823 823 823 823 824 822 816 815 817 815 815 814 812 811 810 809 808 807 806 804 803 801 800 798 796 795 794 792 790 789 787 785 783 782 780 779 777 777 777 777 777 778 779 779 780 780
817 818 819 819 820 820 820 821 821 821 822 823 823 823 823 823 823 823 824 824 824 824 824 824 824 824 824 823 823 823 823 823 823 823 823 822 822 821 821 821 821 821 821 822 821 815 813 814 813 812 812 811 809 808 806 805 805 804 802 800 799 797 796 794 792 791 790 788 786 784 782 780 779 777 775 774 773 772 772 772 773 774 775 775 776
815 816 817 818 819 819 819 819 820 820 821 821 821 821 821 821 821 822 822 822 822 822 822 822 822 822 822 821 821 821 821 821 821 821 820 820 819 819 819 819 819 819 819 819 818 814 810 811 811 810 809 808 806 805 804 802 801 801 799 798 796 795 793 791 789 788 787 785 783 781 779 777 775 773 771 770 768 768 767 767 768 769 769 770 771
813 814 816 817 818 819 819 819 819 819 820 820 820 820 820 819 819 820 820 820 820 820 821 820 821 821 820 820 819 819 819 819 818 818 818 817 817 817 817 816 816 816 817 816 816 813 810 808 808 807 806 806 804 802 801 799 798 797 795 794 793 792 791 789 786 784 783 782 780 777 775 773 771 769 767 766 764 763 762 762 762 763 764 765 766
812 813 814 816 817 818 818 818 818 818 819 819 819 818 818 818 817 817 818 818 818 819 819 819 819 819 819 818 817 817 817 817 816 816 816 815 815 815 814 814 814 813 814 814 813 812 809 806 805 805 804 803 801 799 798 797 795 794 792 790 790 788 787 786 784 781 779 778 776 774 771 769 767 765 763 761 759 758 757 757 757 757 758 759 760
810 812 813 815 816 817 817 817 817 817 817 817 817 817 816 815 815 815 815 816 816 816 817 817 817 817 817 816 815 815 815 815 814 814 813 813 813 812 812 812 812 811 811 811 810 809 808 805 803 802 802 801 799 797 796 794 792 791 789 787 786 785 783 782 780 777 775 774 772 770 767 765 762 760 758 757 754 753 752 751 751 751 752 753 754
808 810 811 812 813 815 815 815 815 815 816 816 815 815 814 813 813 813 813 813 814 814 814 815 815 815 815 814 813 813 813 812 812 811 811 811 810 810 810 809 809 809 808 808 808 807 806 804 802 800 800 799 796 794 793 792 790 788 785 783 782 781 779 778 777 774 772 770 768 765 763 760 758 755 753 752 750 748 747 746 746 746 746 747 748
806 807 808 808 810 811 812 813 813 813 813 814 813 813 812 812 811 811 811 811 811 812 812 812 813 813 813 812 811 811 811 810 809 809 809 808 808 808 807 807 807 807 806 805 805 805 804 803 800 798 797 796 794 792 790 790 788 785 782 780 778 778 776 774 772 771 768 766 763 761 758 755 753 751 748 746 745 743 741 740 740 740 740 741 742
803 804 804 805 805 807 809 809 809 810 811 811 811 810 810 810 809 809 809 809 809 809 810 810 810 810 810 810 810 809 809 808 807 807 806 806 806 805 805 805 804 804 803 803 802 802 802 800 799 796 794 793 792 790 787 787 786 783 780 777 775 773 772 771 768 766 764 762 759 756 754 751 748 746 744 741 740 738 736 734 734 734 734 735 736
800 800 800 801 802 804 805 806 806 807 808 808 808 808 808 808 808 807 807 807 807 807 807 807 808 808 808 807 807 806 806 805 805 805 804 804 804 803 803 802 802 801 801 800 800 799 799 799 796 794 792 791 789 788 786 784 783 779 777 775 772 769 768 767 765 762 759 757 754 750 748 747 744 741 739 736 734 733 731 729 728 728 728 729 730
796 797 797 798 799 801 802 802 803 804 804 805 805 805 805 805 805 805 805 805 805 805 805 805 805 805 805 805 804 804 803 803 803 802 802 802 801 800 800 800 799 799 798 798 797 797 797 796 794 792 791 788 786 785 783 781 779 777 774 773 770 766 764 762 761 760 757 752 749 745 743 742 740 736 734 732 729 728 726 724 723 722 722 724 725
794 794 795 796 797 798 799 799 800 801 802 802 803 803 803 803 803 803 802 803 803 803 803 803 803 803 802 802 802 801 801 800 800 800 799 799 799 798 798 797 797 796 796 795 794 794 794 794 793 791 789 786 783 782 781 778 776 774 772 770 767 764 761 757 754 755 754 750 745 741 738 738 737 732 729 727 724 723 722 719 718 717 717 718 719
791 791 792 794 795 796 797 797 798 799 799 800 800 800 801 801 801 801 800 801 800 800 800 800 800 800 800 799 799 799 798 798 798 798 797 797 796 795 795 795 794 794 793 792 791 791 791 791 790 789 787 783 781 780 778 775 773 771 770 768 765 762 759 755 749 747 749 748 743 736 732 732 733 728 723 721 718 717 716 714 713 713 712 712 713
789 789 789 792 793 794 795 795 796 797 797 798 798 799 799 799 799 799 798 798 798 797 797 797 798 797 797 797 796 796 795 795 795 794 794 794 793 793 792 792 792 791 790 789 789 788 788 788 787 786 784 781 779 777 774 772 771 769 767 765 763 760 757 754 748 743 742 744 741 733 725 725 727 724 717 713 712 710 709 708 707 707 707 707 708
789 789 788 789 791 792 793 793 794 795 796 796 797 797 797 797 797 797 796 795 795 794 794 795 795 795 794 794 793 793 793 792 792 791 791 790 790 790 790 789 788 788 787 786 786 786 785 785 784 783 781 780 778 774 771 770 769 766 764 762 760 757 754 751 747 740 738 740 738 729 720 717 719 717 710 706 705 704 702 701 701 701 701 702 703
786 786 786 787 788 790 791 791 792 793 794 795 795 795 795 795 795 794 793 793 792 792 792 792 792 792 791 791 791 790 790 790 789 789 788 788 787 787 787 786 785 785 784 783 783 783 783 782 781 779 778 777 776 772 769 768 767 764 761 759 757 754 751 748 743 737 734 736 735 727 716 711 712 710 703 699 698 697 696 695 694 695 695 696 697
782 783 784 785 786 787 788 789 790 790 791 792 793 793 793 792 792 791 791 790 790 790 789 789 789 789 789 788 788 788 788 787 787 786 786 786 785 784 784 783 782 781 781 780 781 781 780 779 778 777 775 773 772 770 767 765 763 761 759 757 754 750 747 743 739 733 729 730 730 724 713 705 706 704 695 691 692 690 688 688 688 688 690 690 691
779 781 781 782 783 784 785 786 786 787 788 789 790 790 790 790 789 789 788 788 788 787 787 787 787 786 786 786 785 785 785 784 784 784 784 784 783 782 781 780 779 778 778 778 778 778 777 776 775 774 772 770 769 767 765 762 760 757 755 753 749 746 743 739 734 727 723 723 724 721 710 701 700 697 688 684 685 683 681 681 681 682 683 684 685
776 778 778 779 781 782 782 783 783 784 785 786 787 787 787 787 786 786 786 786 785 785 784 784 784 784 783 783 783 783 782 782 782 782 782 781 781 780 779 778 777 776 775 775 775 775 774 773 772 770 769 767 764 762 760 758 756 755 753 749 745 743 740 736 729 721 717 717 718 714 706 697 693 690 683 679 679 677 675 674 675 676 677 678 680
774 775 776 777 778 779 779 780 780 781 782 783 784 785 785 784 784 784 784 783 782 782 781 781 781 781 781 781 781 781 781 781 781 780 780 779 779 778 777 776 775 774 773 773 772 771 770 769 768 767 764 762 760 758 756 755 753 752 751 747 743 741 738 733 726 717 708 707 710 708 700 692 687 683 679 675 672 670 669 668 669 670 672 673 674
771 772 773 774 775 776 776 777 777 778 779 780 781 782 782 782 782 782 781 780 780 779 779 779 779 778 779 779 779 779 779 779 779 778 777 777 777 776 775 775 774 772 771 771 769 768 767 766 764 763 760 758 757 755 753 751 750 748 747 744 741 739 735 729 724 717 705 696 698 702 695 686 680 676 674 672 667 662 661 662 663 664 666 667 668